DELTA 1 DEB, 42555

Orbit data source: Space-Track

DELTA 1 DEB, 42555 is space debris in SSO originally from a launch on Sun, 23 Jul 1972 UTC launched from the Air Force Western Test Range (AFWTR). Debris objects in space refer to the collection of defunct objects orbiting the Earth. Examples of debris include non-operational satellites, rocket bodies, and fragments generated from explosions, collisions, or faulty payload assembly.

Loading next visibility...
Identifier
42555, 1972-058JN
Orbit
SSO
Country
Flag of USUS
Related business
Manufacturer
Unknown
Mission
Spacecraft
Bus & Motor
Unknown
Mass
Unknown
Launch date (UTC)
1972-07-23 (53 years ago)
Launch vehicle
Unknown
Launch site
Air Force Western Test Range (AFWTR)
Object type
Payload
Rocket body
Debris
Shape & HBR
Unknown shape, 0.1 m
Radar Cross Section
Small (<0.1 m²)

Expand to show TLE details & history
Last TLE update: 23 hours ago

TLE from 23 hours ago
0 DELTA 1 DEB
1 42555U 72058JN  25299.23821993  .00001782  00000-0  28839-3 0  9998
2 42555  97.7767 285.0879 0013786   5.4694   5.9307 14.72396864639943
Epoch: 2025-10-26T05:43Z
TLE epoch observation values (Epoch: 2025-10-26T05:43:02.201Z)
Latitude
11.26157°
Longitude
162.9216°
Altitude
646.037 km
Speed
7.541 km/s
True Right ascension
18h 54m 09s
True Declination
11° 11' 41"
Sunlit
Object was in daylight at epoch
Visualization orbit readout
Latitude
Unknown
Longitude
Unknown
Altitude
Unknown
Speed
Unknown
Apparent Right ascension
Unknown
Apparent Declination
Unknown
Sunlit
N/A
Visualization observer readout
Local Sidereal Time
00:07:18
Azimuth
Unknown
Elevation
Unknown
Doppler factor
Unknown
Orbital elements
Apogee altitude
660.162 km
Perigee altitude
640.783 km
Semi-major axis
7,028.609 km
Eccentricity
0.00138
Inclination
97.7767°
RAAN
285.0879°
Arg. of periapsis
5.4694°
True anomaly
5.94705°
Mean anomaly
5.9307°
Eccentric anomaly
5.93887°
Mean motion
3.68332 °/min
Orbital period
97.74 mins
BSTAR
0.00028839
Loading maneuver chart data...
Computing Atmospheric mass density...
Loading historical data...
Loading historical data...
Loading historical data...
Loading historical data...
Loading historical data...
Loading historical data...
Loading historical data...

Documentation

Showing up to 5 results
|